Time,TemperatureF,DewpointF,PressureIn,WindDirection,WindDirectionDegrees,WindSpeedMPH,WindSpeedGustMPH,Humidity,HourlyPrecipIn,Conditions,Clouds,dailyrainin,SoftwareType,DateUTC
2013-02-22 00:06:00,30.6,24.0,30.16,WSW,253,3.0,6.0,75,0.00,,,0.00,weatherlink.com 1.10,2013-02-22 08:06:00,
2013-02-22 00:21:00,30.5,23.0,30.16,NW,314,0.0,5.0,75,0.00,,,0.00,weatherlink.com 1.10,2013-02-22 08:21:00,
2013-02-22 00:36:00,30.8,24.0,30.16,WSW,255,4.0,7.0,75,0.00,,,0.00,weatherlink.com 1.10,2013-02-22 08:36:00,
2013-02-22 00:51:00,31.1,24.0,30.16,WNW,298,6.0,9.0,75,0.00,,,0.00,weatherlink.com 1.10,2013-02-22 08:51:00,
2013-02-22 01:07:00,31.3,24.0,30.16,WNW,301,5.0,10.0,75,0.00,,,0.00,weatherlink.com 1.10,2013-02-22 09:07:00,
2013-02-22 01:22:00,31.3,24.0,30.16,West,280,6.0,10.0,75,0.00,,,0.00,weatherlink.com 1.10,2013-02-22 09:22:00,
2013-02-22 01:37:00,31.1,24.0,30.16,West,259,2.0,7.0,76,0.00,,,0.00,weatherlink.com 1.10,2013-02-22 09:37:00,
2013-02-22 01:52:00,31.1,24.0,30.15,WNW,290,3.0,8.0,76,0.00,,,0.00,weatherlink.com 1.10,2013-02-22 09:52:00,
2013-02-22 02:07:00,31.1,24.0,30.15,West,281,1.0,5.0,76,0.00,,,0.00,weatherlink.com 1.10,2013-02-22 10:07:00,
2013-02-22 02:22:00,31.0,24.0,30.14,SSW,200,0.0,3.0,76,0.00,,,0.00,weatherlink.com 1.10,2013-02-22 10:22:00,
2013-02-22 02:37:00,30.9,24.0,30.14,WSW,245,1.0,7.0,76,0.00,,,0.00,weatherlink.com 1.10,2013-02-22 10:37:00,
2013-02-22 02:52:00,30.5,24.0,30.14,ESE,122,2.0,4.0,77,0.00,,,0.00,weatherlink.com 1.10,2013-02-22 10:52:00,
2013-02-22 03:07:00,30.4,24.0,30.14,East,101,2.0,5.0,77,0.00,,,0.00,weatherlink.com 1.10,2013-02-22 11:07:00,
2013-02-22 03:22:00,30.9,24.0,30.14,WSW,239,1.0,4.0,75,0.00,,,0.00,weatherlink.com 1.10,2013-02-22 11:22:00,
2013-02-22 03:37:00,31.2,24.0,30.13,WSW,245,2.0,5.0,74,0.00,,,0.00,weatherlink.com 1.10,2013-02-22 11:37:00,
2013-02-22 03:52:00,31.4,24.0,30.12,SSW,195,1.0,6.0,73,0.00,,,0.00,weatherlink.com 1.10,2013-02-22 11:52:00,
2013-02-22 04:07:00,31.5,24.0,30.11,South,169,3.0,7.0,73,0.00,,,0.00,weatherlink.com 1.10,2013-02-22 12:07:00,
2013-02-22 04:22:00,31.1,24.0,30.13,SSE,149,1.0,6.0,75,0.00,,,0.00,weatherlink.com 1.10,2013-02-22 12:22:00,
2013-02-22 04:37:00,30.6,24.0,30.13,ESE,109,2.0,4.0,75,0.00,,,0.00,weatherlink.com 1.10,2013-02-22 12:37:00,
2013-02-22 04:52:00,30.0,24.0,30.13,SSE,161,2.0,5.0,77,0.00,,,0.00,weatherlink.com 1.10,2013-02-22 12:52:00,
2013-02-22 05:07:00,30.2,24.0,30.13,SSW,212,3.0,5.0,77,0.00,,,0.00,weatherlink.com 1.10,2013-02-22 13:07:00,
2013-02-22 05:22:00,31.0,24.0,30.13,ESE,109,3.0,7.0,75,0.00,,,0.00,weatherlink.com 1.10,2013-02-22 13:22:00,
2013-02-22 05:37:00,30.8,24.0,30.13,SSE,152,2.0,4.0,76,0.00,,,0.00,weatherlink.com 1.10,2013-02-22 13:37:00,
2013-02-22 05:52:00,31.6,24.0,30.12,SSE,148,3.0,8.0,74,0.00,,,0.00,weatherlink.com 1.10,2013-02-22 13:52:00,
2013-02-22 06:07:00,31.7,24.0,30.11,SE,143,3.0,7.0,73,0.00,,,0.00,weatherlink.com 1.10,2013-02-22 14:07:00,
2013-02-22 06:22:00,31.1,24.0,30.11,SSE,156,6.0,7.0,75,0.00,,,0.00,weatherlink.com 1.10,2013-02-22 14:22:00,
2013-02-22 06:37:00,30.7,24.0,30.11,SSE,148,3.0,8.0,76,0.00,,,0.00,weatherlink.com 1.10,2013-02-22 14:37:00,
2013-02-22 06:52:00,30.1,24.0,30.11,SSW,211,3.0,10.0,77,0.00,,,0.00,weatherlink.com 1.10,2013-02-22 14:52:00,
2013-02-22 07:07:00,30.4,24.0,30.09,East,91,7.0,11.0,77,0.00,,,0.00,weatherlink.com 1.10,2013-02-22 15:07:00,
2013-02-22 07:22:00,30.4,24.0,30.10,South,180,4.0,10.0,77,0.00,,,0.00,weatherlink.com 1.10,2013-02-22 15:22:00,
2013-02-22 07:37:00,30.8,24.0,30.10,ESE,117,1.0,13.0,76,0.00,,,0.00,weatherlink.com 1.10,2013-02-22 15:37:00,
2013-02-22 07:52:00,30.8,24.0,30.09,South,170,4.0,13.0,77,0.00,,,0.00,weatherlink.com 1.10,2013-02-22 15:52:00,
2013-02-22 08:07:00,31.0,24.0,30.09,ESE,118,5.0,13.0,76,0.00,,,0.00,weatherlink.com 1.10,2013-02-22 16:07:00,
2013-02-22 08:22:00,31.5,25.0,30.07,ESE,117,9.0,13.0,76,0.00,,,0.00,weatherlink.com 1.10,2013-02-22 16:22:00,
2013-02-22 08:37:00,31.4,25.0,30.07,ESE,110,5.0,14.0,76,0.00,,,0.00,weatherlink.com 1.10,2013-02-22 16:37:00,
2013-02-22 08:52:00,31.3,25.0,30.07,ESE,115,4.0,15.0,77,0.00,,,0.00,weatherlink.com 1.10,2013-02-22 16:52:00,
2013-02-22 09:07:00,31.7,25.0,30.06,SSE,151,5.0,14.0,76,0.00,,,0.00,weatherlink.com 1.10,2013-02-22 17:07:00,
2013-02-22 09:22:00,32.2,25.0,30.06,SE,143,2.0,14.0,75,0.00,,,0.00,weatherlink.com 1.10,2013-02-22 17:22:00,
2013-02-22 09:37:00,32.8,25.0,30.06,SE,129,3.0,20.0,73,0.00,,,0.00,weatherlink.com 1.10,2013-02-22 17:37:00,
2013-02-22 09:52:00,33.4,25.0,30.05,SSE,166,11.0,21.0,72,0.00,,,0.00,weatherlink.com 1.10,2013-02-22 17:52:00,
2013-02-22 10:07:00,33.4,25.0,30.05,SSE,150,8.0,20.0,72,0.00,,,0.00,weatherlink.com 1.10,2013-02-22 18:07:00,
2013-02-22 10:22:00,33.8,26.0,30.05,SSE,162,7.0,18.0,72,0.00,,,0.00,weatherlink.com 1.10,2013-02-22 18:22:00,
2013-02-22 10:38:00,34.3,25.0,30.06,SSE,150,8.0,20.0,70,0.00,,,0.00,weatherlink.com 1.10,2013-02-22 18:38:00,
2013-02-22 10:53:00,34.3,26.0,30.04,South,169,7.0,15.0,71,0.00,,,0.00,weatherlink.com 1.10,2013-02-22 18:53:00,
2013-02-22 11:08:00,34.5,26.0,30.03,South,174,7.0,17.0,70,0.00,,,0.00,weatherlink.com 1.10,2013-02-22 19:08:00,
2013-02-22 11:23:00,34.4,26.0,30.02,SE,139,6.0,13.0,71,0.00,,,0.00,weatherlink.com 1.10,2013-02-22 19:23:00,
2013-02-22 11:38:00,34.6,26.0,30.01,SSE,156,9.0,19.0,71,0.00,,,0.00,weatherlink.com 1.10,2013-02-22 19:38:00,
2013-02-22 11:53:00,34.9,26.0,29.99,ESE,113,10.0,15.0,71,0.00,,,0.00,weatherlink.com 1.10,2013-02-22 19:53:00,
2013-02-22 12:08:00,35.4,27.0,29.99,SE,128,4.0,17.0,70,0.00,,,0.00,weatherlink.com 1.10,2013-02-22 20:08:00,
2013-02-22 12:23:00,36.0,27.0,29.98,SSE,162,6.0,17.0,70,0.00,,,0.00,weatherlink.com 1.10,2013-02-22 20:23:00,
2013-02-22 12:38:00,36.7,27.0,29.98,SE,140,8.0,17.0,68,0.00,,,0.00,weatherlink.com 1.10,2013-02-22 20:38:00,
2013-02-22 12:53:00,36.9,28.0,29.96,South,173,12.0,15.0,69,0.00,,,0.00,weatherlink.com 1.10,2013-02-22 20:53:00,
2013-02-22 13:08:00,37.4,28.0,29.96,SSE,160,15.0,17.0,69,0.00,,,0.00,weatherlink.com 1.10,2013-02-22 21:08:00,
2013-02-22 13:23:00,37.7,28.0,29.96,SSE,153,6.0,14.0,69,0.00,,,0.00,weatherlink.com 1.10,2013-02-22 21:23:00,
2013-02-22 13:38:00,37.9,29.0,29.94,South,174,5.0,12.0,71,0.00,,,0.00,weatherlink.com 1.10,2013-02-22 21:38:00,
2013-02-22 13:53:00,38.1,29.0,29.93,SSW,195,3.0,10.0,71,0.00,,,0.00,weatherlink.com 1.10,2013-02-22 21:53:00,
2013-02-22 14:08:00,38.6,30.0,29.93,SE,146,6.0,8.0,72,0.00,,,0.00,weatherlink.com 1.10,2013-02-22 22:08:00,
2013-02-22 14:23:00,38.9,31.0,29.92,SSW,203,4.0,10.0,72,0.00,,,0.00,weatherlink.com 1.10,2013-02-22 22:23:00,
2013-02-22 14:38:00,38.5,31.0,29.93,SW,216,5.0,11.0,75,0.00,,,0.00,weatherlink.com 1.10,2013-02-22 22:38:00,
2013-02-22 14:53:00,37.5,31.0,29.93,West,276,4.0,8.0,78,0.00,,,0.00,weatherlink.com 1.10,2013-02-22 22:53:00,
2013-02-22 15:08:00,37.2,31.0,29.95,West,259,2.0,7.0,78,0.00,,,0.00,weatherlink.com 1.10,2013-02-22 23:08:00,
2013-02-22 15:23:00,36.1,31.0,29.96,South,184,3.0,6.0,83,0.01,,,0.01,weatherlink.com 1.10,2013-02-22 23:23:00,
2013-02-22 15:38:00,36.3,32.0,29.93,SSW,193,5.0,9.0,83,0.01,,,0.01,weatherlink.com 1.10,2013-02-22 23:38:00,
2013-02-22 15:53:00,36.2,31.0,29.94,SSW,211,3.0,12.0,81,0.01,,,0.01,weatherlink.com 1.10,2013-02-22 23:53:00,
2013-02-22 16:08:00,37.1,31.0,29.90,SSE,148,6.0,15.0,78,0.01,,,0.01,weatherlink.com 1.10,2013-02-23 00:08:00,
2013-02-22 16:23:00,35.8,31.0,29.89,SSE,163,3.0,9.0,84,0.00,,,0.01,weatherlink.com 1.10,2013-02-23 00:23:00,
2013-02-22 16:39:00,35.3,32.0,29.90,SSE,149,6.0,12.0,86,0.00,,,0.01,weatherlink.com 1.10,2013-02-23 00:39:00,
2013-02-22 16:54:00,35.3,32.0,29.90,SSE,156,3.0,14.0,86,0.00,,,0.01,weatherlink.com 1.10,2013-02-23 00:54:00,
2013-02-22 17:09:00,35.4,32.0,29.89,SSE,153,6.0,16.0,86,0.00,,,0.01,weatherlink.com 1.10,2013-02-23 01:09:00,
2013-02-22 17:24:00,35.5,31.0,29.88,ESE,120,9.0,12.0,84,0.00,,,0.01,weatherlink.com 1.10,2013-02-23 01:24:00,
2013-02-22 17:39:00,36.0,31.0,29.88,SSE,149,6.0,12.0,81,0.00,,,0.01,weatherlink.com 1.10,2013-02-23 01:39:00,
2013-02-22 17:54:00,36.0,30.0,29.87,SSE,162,4.0,26.0,79,0.00,,,0.01,weatherlink.com 1.10,2013-02-23 01:54:00,
2013-02-22 18:09:00,36.7,30.0,29.87,SSE,165,6.0,12.0,77,0.00,,,0.01,weatherlink.com 1.10,2013-02-23 02:09:00,
2013-02-22 18:24:00,37.3,29.0,29.87,South,188,7.0,16.0,72,0.00,,,0.01,weatherlink.com 1.10,2013-02-23 02:24:00,
2013-02-22 18:39:00,37.8,29.0,29.87,WNW,300,4.0,17.0,70,0.00,,,0.01,weatherlink.com 1.10,2013-02-23 02:39:00,
2013-02-22 18:54:00,37.8,28.0,29.86,WSW,243,6.0,18.0,69,0.00,,,0.01,weatherlink.com 1.10,2013-02-23 02:54:00,
2013-02-22 19:09:00,36.9,29.0,29.87,SSW,209,13.0,20.0,72,0.00,,,0.01,weatherlink.com 1.10,2013-02-23 03:09:00,
2013-02-22 19:24:00,36.1,29.0,29.87,West,281,6.0,18.0,74,0.00,,,0.01,weatherlink.com 1.10,2013-02-23 03:24:00,
2013-02-22 19:39:00,34.8,29.0,29.88,WSW,248,12.0,22.0,78,0.00,,,0.01,weatherlink.com 1.10,2013-02-23 03:39:00,
2013-02-22 19:54:00,32.7,28.0,29.89,WNW,293,7.0,21.0,84,0.00,,,0.01,weatherlink.com 1.10,2013-02-23 03:54:00,
2013-02-22 20:09:00,31.4,29.0,29.89,West,278,5.0,15.0,89,0.00,,,0.01,weatherlink.com 1.10,2013-02-23 04:09:00,
2013-02-22 20:24:00,30.9,28.0,29.88,SSE,168,1.0,11.0,89,0.00,,,0.01,weatherlink.com 1.10,2013-02-23 04:24:00,
2013-02-22 20:39:00,30.3,28.0,29.88,NW,316,4.0,9.0,90,0.00,,,0.01,weatherlink.com 1.10,2013-02-23 04:39:00,
2013-02-22 20:54:00,29.7,27.0,29.87,NW,311,1.0,6.0,91,0.00,,,0.01,weatherlink.com 1.10,2013-02-23 04:54:00,
2013-02-22 21:09:00,29.8,25.0,29.89,NW,314,10.0,14.0,82,0.00,,,0.01,weatherlink.com 1.10,2013-02-23 05:09:00,
2013-02-22 21:24:00,29.8,25.0,29.92,WNW,292,17.0,25.0,83,0.00,,,0.01,weatherlink.com 1.10,2013-02-23 05:24:00,
2013-02-22 21:39:00,27.5,25.0,29.93,NW,309,10.0,30.0,91,0.00,,,0.01,weatherlink.com 1.10,2013-02-23 05:39:00,
2013-02-22 21:54:00,27.1,25.0,29.94,NW,304,7.0,15.0,92,0.00,,,0.01,weatherlink.com 1.10,2013-02-23 05:54:00,
2013-02-22 22:09:00,27.1,25.0,29.95,West,280,4.0,9.0,92,0.00,,,0.01,weatherlink.com 1.10,2013-02-23 06:09:00,
2013-02-22 22:24:00,26.9,25.0,29.95,WSW,242,8.0,11.0,92,0.00,,,0.01,weatherlink.com 1.10,2013-02-23 06:24:00,
2013-02-22 22:39:00,26.5,24.0,29.95,NNW,329,1.0,8.0,90,0.00,,,0.01,weatherlink.com 1.10,2013-02-23 06:39:00,
2013-02-22 22:54:00,26.0,24.0,29.97,NW,318,1.0,6.0,90,0.00,,,0.01,weatherlink.com 1.10,2013-02-23 06:54:00,
2013-02-22 23:09:00,25.6,23.0,29.97,NNW,342,2.0,4.0,88,0.00,,,0.01,weatherlink.com 1.10,2013-02-23 07:09:00,
2013-02-22 23:24:00,25.5,22.0,29.98,West,260,3.0,5.0,87,0.00,,,0.01,weatherlink.com 1.10,2013-02-23 07:24:00,
2013-02-22 23:39:00,25.6,21.0,29.98,WNW,287,5.0,9.0,81,0.00,,,0.01,weatherlink.com 1.10,2013-02-23 07:39:00,
2013-02-22 23:54:00,26.0,22.0,29.99,WNW,294,7.0,11.0,83,0.00,,,0.01,weatherlink.com 1.10,2013-02-23 07:54:00,